SCP
-0 -0 0 -0 0 0 -0 -0 -0 -0 0 0 0 0 0 0 3 2 1 0 0 0 0 0 0 0 0 0 0 0 0 0 0 0 0 0 0 0 0 0 0 0 0 0
0 0 0 -0 -0 -0 -0 -0 0 0 0 0 0 0 0 3 1 0 0 0 0 0 0 0 0 0 0 0 0 0 0 0 0 0 0 0 0 0 0 0 0 0 0 0
0 0 0 0 0 0 0 0 -0 0 0 0 0 2 2 1 0 0 0 0 0 0 0 0 0 0 0 0 0 0 0 0 0 0 0 0 0 0 0 0 0 0 0 0
0 0 -0 -0 0 -0 -0 -0 0 0 0 0 1 0 1 1 0 0 0 0 0 0 0 0 0 0 0 0 0 0 0 0 0 0 0 0 0 0 0 0 0 0 0 0
0 0 0 0 -0 -0 0 0 0 0 0 0 0 0 0 0 0 0 0 0 0 0 0 0 0 0 0 0 0 0 0 0 0 0 0 0 0 0 0 0 0 0 0 0
0 0 -0 -0 0 -0 0 0 0 0 0 0 0 0 0 0 0 0 0 0 0 0 0 0 0 0 0 0 0 0 0 0 0 0 0 0 0 0 0 0 0 0 0 0
-0 0 0 0 -0 -0 0 0 0 0 0 0 0 0 0 0 0 0 0 0 0 0 0 0 0 0 0 0 0 0 0 0 0 0 0 0 0 0 0 0 0 0 0 0
-0 0 -0 0 -0 0 0 0 0 0 0 0 0 0 0 0 0 0 0 0 0 0 0 0 0 0 0 0 0 0 0 0 0 0 0 0 0 0 0 0 0 0 0 0
-0 0 0 0 0 0 0 0 0 0 0 0 0 0 0 0 0 0 0 0 0 0 0 0 0 0 0 0 0 0 0 0 0 0 0 0 0 0 0 0 0 0 0 0
-0 0 0 0 0 0 0 0 0 0 0 0 0 0 0 0 0 0 0 0 0 0 0 0 0 0 0 0 0 0 0 0 0 0 0 0 0 0 0 0 0 0 0 0
0 0 0 0 0 0 0 0 0 0 0 0 0 0 0 0 0 0 0 0 0 0 0 0 0 0 0 0 0 0 0 0 0 0 0 0 0 0 0 0 0 0 0 0
0 0 0 0 0 0 0 0 0 0 0 0 0 0 0 0 0 0 0 0 0 0 0 0 0 0 0 0 0 0 0 0 0 0 0 0 0 0 0 0 0 0 0 0
0 0 0 -0 0 0 0 0 0 0 0 0 0 0 0 0 0 0 0 0 0 0 0 0 0 0 0 0 0 0 0 0 0 0 0 0 0 0 0 0 0 0 0 0
0 0 0 0 0 0 0 0 0 0 0 0 0 0 0 0 0 0 0 0 0 0 0 0 0 0 0 0 0 0 0 0 0 0 0 0 0 0 0 0 0 0 0 0
0 0 0 0 0 -0 -0 0 0 0 0 0 0 0 0 0 0 0 0 0 0 0 0 0 0 0 0 0 0 0 0 0 0 0 0 0 0 0 0 0 0 0 0 0
0 0 0 0 0 0 0 0 0 0 0 0 0 0 0 0 0 0 0 0 0 0 0 0 0 0 0 0 0 0 0 0 0 0 0 0 0 0 0 0 0 0 0 0
0 0 0 0 0 0 0 0 0 0 -0 0 0 0 0 0 0 0 0 0 0 0 0 0 0 0 0 0 0 0 0 0 0 0 0 0 0 0 0 0 0 0 0 0
0 0 0 0 0 0 0 0 0 0 0 0 0 0 0 0 0 0 0 0 0 0 0 0 0 0 0 0 0 0 0 0 0 0 0 0 0 0 0 0 0 0 0 0
0 0 0 0 0 0 0 0 0 0 0 0 0 0 0 0 0 0 0 0 0 0 0 0 0 0 0 0 0 0 0 0 0 0 0 0 0 0 0 0 0 0 0 0
0 0 0 0 0 0 0 0 0 0 0 0 0 0 0 0 0 0 0 0 0 0 0 0 0 0 0 0 0 0 0 0 0 0 0 0 0 0 0 0 0 0 0 0
0 0 0 0 0 0 0 0 0 0 0 0 0 0 0 0 0 0 0 0 0 0 0 0 0 0 0 0 -0 0 0 0 0 0 0 0 0 0 0 0 0 0 0 0
0 0 0 0 0 0 0 0 0 0 0 0 0 0 0 0 0 0 0 0 0 0 0 0 0 0 0 -0 0 0 0 0 0 0 0 0 0 0 0 0 0 0 0 0
0 0 0 0 0 0 0 0 0 0 0 0 0 0 0 0 0 0 0 0 0 0 0 0 0 0 0 0 0 0 0 0 0 0 0 0 0 0 0 0 0 0 0 0
0 0 0 0 0 0 0 0 0 0 0 0 0 0 0 0 0 0 0 0 0 0 0 0 0 0 0 0 0 0 0 0 0 0 0 0 0 0 0 0 0 0 0 0
-0 0 0 0 0 0 0 0 0 0 0 0 0 0 0 0 0 0 0 0 0 0 0 0 0 -0 0 0 0 0 0 0 0 0 0 0 0 0 0 0 0 0 0 0
-0 -0 -0 -0 0 0 0 0 0 0 0 0 0 0 0 0 0 0 0 0 0 -0 0 0 0 0 0 0 0 0 0 0 0 0 0 0 0 0 0 0 0 0 0 0
0 0 0 0 0 0 0 0 0 0 0 0 0 0 0 0 0 0 0 0 0 0 0 0 0 -0 0 0 0 0 0 0 0 0 0 0 0 0 0 0 0 0 0 0
Wind_Speed_500mb
31 41 22 20 20 14 31 31 15 15 28 45 39 32 34 59 77 68 67 66 76 88 89 85 83 81 75 72 68 68 73 68 63 61 57 53 46 41 35 26 18 12 11 11
29 15 6 9 12 14 23 25 26 28 37 31 36 43 39 67 73 69 66 70 75 82 89 89 87 83 78 75 75 75 75 68 67 62 54 47 42 36 29 23 20 18 18 16
10 15 3 11 14 18 11 15 8 15 23 26 17 41 42 58 63 71 74 79 83 88 90 89 86 82 77 74 76 75 76 72 64 56 49 43 38 32 28 24 22 20 19 16
12 18 4 8 19 13 15 12 20 22 36 23 39 52 50 52 68 71 81 84 89 92 90 88 84 80 75 67 69 66 62 58 52 49 47 41 36 31 28 26 24 23 21 18
11 17 4 4 16 15 13 6 27 37 2 45 73 83 47 56 60 72 81 87 92 93 87 78 73 71 69 66 64 61 58 54 49 46 44 40 36 33 30 29 25 23 20 18
13 10 12 10 40 51 8 6 35 32 17 37 49 27 8 66 75 80 87 93 94 86 77 75 69 68 69 66 62 59 54 51 47 43 41 39 37 33 31 28 27 20 18 15
17 7 4 21 51 52 5 11 51 36 13 38 24 21 48 83 84 86 92 84 79 74 74 70 67 67 68 63 59 54 51 47 45 44 43 38 35 30 27 24 22 19 16 16
10 9 8 59 33 15 21 37 29 25 40 70 74 59 66 86 91 87 87 75 71 76 71 64 61 64 65 61 55 52 52 47 42 39 36 32 30 27 24 21 18 17 16 15
8 8 21 47 36 55 26 5 15 25 38 74 77 62 69 81 82 80 77 73 69 71 67 58 55 55 63 56 53 52 49 45 41 38 36 31 29 24 21 16 15 14 15 15
17 7 28 36 57 57 20 22 36 42 49 62 88 75 69 82 77 77 72 69 66 64 61 59 54 56 58 54 51 50 48 43 39 37 36 31 26 21 20 19 17 18 17 15
7 12 36 21 57 42 29 38 49 57 58 61 98 79 81 79 72 73 70 63 58 57 57 56 53 55 52 49 48 48 44 40 38 36 34 31 27 26 21 19 24 18 17 16
7 22 15 27 51 25 32 31 37 65 66 63 86 84 83 82 75 72 66 56 56 52 54 51 50 50 47 43 42 44 42 37 35 34 30 28 27 28 26 29 27 27 24 20
11 32 25 23 33 24 33 43 55 76 73 73 76 74 70 75 71 70 59 57 53 50 53 47 46 48 44 41 39 39 39 38 36 32 29 28 26 25 31 30 24 23 23 22
17 13 9 27 20 30 39 47 61 66 66 63 62 64 68 64 64 61 58 56 54 53 47 42 42 43 40 38 40 41 39 43 34 31 29 27 26 24 22 19 16 18 19 21
16 15 14 13 27 35 43 47 60 61 58 56 50 53 54 55 52 54 51 53 50 45 39 35 40 41 38 38 41 41 36 35 34 31 29 30 28 26 22 20 16 13 13 20
11 12 19 25 28 32 42 52 61 56 54 57 59 59 58 59 58 55 51 51 56 49 41 43 43 43 42 39 38 37 36 42 36 33 31 28 26 24 21 17 16 13 10 9
7 15 15 21 25 30 37 45 51 55 61 63 62 60 60 59 61 56 46 44 44 44 39 38 39 39 36 34 35 36 36 32 34 28 27 24 23 20 17 16 14 11 8 8
8 14 15 20 26 32 37 44 51 56 59 59 56 52 53 54 52 42 39 42 43 41 37 35 34 35 35 33 31 32 30 28 28 27 25 23 21 18 16 15 13 9 6 11
14 20 20 19 23 31 40 46 51 54 54 53 50 47 46 39 37 36 35 35 38 37 31 34 41 35 33 36 29 27 28 29 27 26 24 25 21 17 15 13 12 9 6 5
22 23 21 24 25 29 39 43 50 53 53 47 48 44 38 33 32 33 34 32 29 33 33 36 29 30 32 40 33 26 26 26 25 23 21 19 17 15 13 17 12 7 5 4
25 25 26 29 34 38 41 46 50 53 51 47 38 40 41 31 27 29 31 32 33 36 35 32 26 26 24 34 26 22 22 23 21 21 18 16 16 13 12 9 7 5 3 3
26 24 25 30 33 35 39 42 42 42 35 33 36 35 34 29 29 27 25 39 43 39 28 24 23 27 30 31 23 22 20 19 18 17 15 14 12 11 10 8 6 3 2 1
23 25 25 24 26 30 31 30 31 31 31 31 32 33 26 25 26 29 34 33 42 36 25 23 26 26 27 20 18 20 19 16 14 13 13 13 11 10 9 6 4 3 1 2
27 25 25 28 29 30 31 29 27 27 28 30 29 27 24 23 25 24 30 42 38 35 23 28 25 25 24 15 17 16 15 16 14 13 13 16 10 7 7 6 4 4 4 5
24 23 25 27 29 29 30 30 29 29 30 27 26 23 20 20 24 30 36 34 35 27 22 26 25 26 18 15 14 15 15 14 16 17 15 12 10 9 8 7 7 6 7 8
28 24 22 24 24 29 32 35 32 30 30 28 26 29 26 21 23 26 26 27 34 32 24 28 25 22 16 15 15 17 17 17 16 16 14 16 15 11 8 7 7 8 9 11
24 25 25 24 23 27 29 33 32 32 32 30 29 28 26 22 22 26 29 32 29 29 24 21 20 22 18 18 18 18 18 16 16 15 16 14 11 9 11 11 11 13 14 16
Wind_Direction_500mb
253 273 268 242 263 194 239 242 251 287 255 277 280 272 185 166 127 129 139 135 132 135 142 148 150 154 157 158 158 159 157 150 149 149 148 147 145 145 146 146 151 155 164 164
292 285 208 224 198 210 236 261 261 261 270 275 267 257 166 125 132 138 133 126 129 137 144 150 152 152 155 153 152 155 148 144 144 146 143 143 141 141 145 148 152 149 143 141
295 331 301 122 10 308 327 298 281 266 267 273 278 133 125 129 139 134 131 131 132 135 140 145 147 148 147 147 149 152 147 143 141 139 131 130 131 132 133 133 127 118 114 113
288 305 316 105 42 344 317 289 307 285 251 253 98 89 104 128 134 126 127 126 127 128 129 133 135 136 132 132 134 133 131 131 128 128 126 123 125 127 122 116 113 110 105 98
319 331 331 25 22 341 330 298 351 355 315 94 97 87 60 101 112 120 123 125 126 125 125 126 129 129 130 129 128 128 128 128 129 128 125 122 120 118 115 111 102 96 95 93
330 322 352 15 329 328 185 356 347 326 136 116 117 100 86 110 116 117 120 123 122 123 125 124 127 128 127 127 127 126 127 127 124 125 125 123 119 114 107 100 96 88 82 77
341 333 97 3 329 318 343 332 317 349 335 107 96 93 119 119 117 118 119 119 120 121 121 123 127 128 124 125 123 123 124 124 125 128 125 123 117 112 107 106 91 77 70 64
328 335 350 355 346 4 306 299 322 32 94 101 103 105 110 114 116 115 115 118 120 120 120 123 126 126 123 120 121 122 122 122 122 122 121 122 123 116 109 97 83 73 77 74
334 336 337 325 313 315 344 81 41 77 97 112 108 103 111 112 112 113 115 117 119 118 118 119 122 124 120 119 123 122 120 121 118 117 119 121 118 113 102 88 76 76 84 82
321 60 334 324 355 2 74 79 93 98 102 106 105 106 103 108 110 112 116 115 117 117 117 116 119 122 120 121 122 123 122 122 121 120 121 116 106 99 90 79 83 81 81 81
262 344 330 340 1 7 83 98 97 100 99 103 112 103 105 103 105 111 113 113 116 116 117 117 119 119 121 123 125 123 122 122 121 119 118 118 115 100 89 103 112 94 86 95
349 325 311 303 352 34 88 97 104 114 105 98 113 113 113 106 106 109 112 115 114 114 113 115 115 116 120 124 127 126 123 123 126 123 118 115 112 115 101 98 99 96 101 90
282 315 324 338 20 81 104 117 107 110 113 110 108 110 110 114 115 113 109 113 110 112 114 111 113 117 119 122 125 125 127 126 127 123 123 121 115 112 112 105 94 85 74 67
332 314 353 37 46 98 117 118 113 110 107 110 116 118 117 113 112 113 113 114 115 112 108 111 114 111 116 121 122 123 126 124 121 121 120 123 125 122 114 108 96 77 67 53
35 49 70 83 92 104 123 127 117 117 123 124 124 117 114 116 118 116 115 116 113 113 107 111 110 109 113 116 118 116 119 121 122 120 124 124 123 125 122 113 107 92 55 26
60 69 84 97 102 109 125 126 124 121 124 123 120 121 121 122 119 117 118 121 120 116 117 112 110 112 113 114 118 124 132 130 123 120 118 121 121 117 116 114 107 99 84 55
72 79 89 97 112 123 122 129 134 133 130 129 127 127 128 125 123 117 112 113 116 116 116 114 112 112 115 116 116 118 121 125 129 123 121 119 116 119 119 115 106 99 79 58
104 109 114 125 129 134 139 143 145 142 137 133 130 131 126 126 116 116 118 118 113 108 108 110 111 114 116 118 120 122 126 126 129 127 123 123 122 119 115 111 110 106 84 53
125 125 117 123 139 143 145 147 146 143 140 139 138 137 135 121 117 117 118 117 118 116 114 123 123 117 124 128 121 128 130 127 125 127 131 117 112 114 114 116 114 112 107 85
119 123 123 123 134 146 145 146 145 144 135 136 140 138 129 123 123 125 128 126 127 124 128 121 119 124 134 133 125 131 130 127 124 120 126 122 118 125 131 136 126 130 122 91
106 114 121 128 135 138 142 145 144 142 141 142 150 148 145 135 136 139 136 131 134 132 134 125 133 136 144 128 121 137 130 123 126 121 116 128 120 124 129 136 138 133 125 78
120 114 116 125 127 132 138 141 144 142 142 153 158 163 158 140 139 141 152 155 151 142 134 141 147 149 143 122 142 134 133 132 126 125 135 135 140 144 151 148 143 127 96 52
134 137 139 140 143 143 144 150 152 154 154 159 166 159 152 152 156 144 148 157 160 152 154 163 157 153 147 130 133 131 132 132 140 149 150 155 159 165 167 168 171 158 176 314
139 142 142 146 152 151 152 155 159 163 159 156 157 163 167 163 162 164 176 163 169 157 166 167 161 156 134 147 141 135 147 158 162 167 174 166 162 178 186 189 195 225 259 314
161 158 157 161 162 165 166 164 161 163 162 163 170 171 165 172 181 172 168 174 172 166 172 171 167 160 140 149 147 152 167 177 183 171 165 167 163 174 194 197 211 231 259 276
170 171 170 168 170 169 171 170 170 170 169 174 174 176 177 174 172 164 163 170 171 166 176 179 171 154 155 157 166 175 175 181 168 164 165 161 169 185 198 212 238 275 276 276
168 169 166 167 173 174 177 177 177 180 176 182 184 182 181 170 167 169 175 173 180 175 177 180 183 171 187 189 184 189 187 189 187 192 188 195 203 207 222 241 252 261 270 277
Wind_Speed_850mb
31 41 22 20 20 14 31 31 15 15 28 45 39 32 34 59 77 68 67 66 76 88 89 85 83 81 75 72 68 68 73 68 63 61 57 53 46 41 35 26 18 12 11 11
29 15 6 9 12 14 23 25 26 28 37 31 36 43 39 67 73 69 66 70 75 82 89 89 87 83 78 75 75 75 75 68 67 62 54 47 42 36 29 23 20 18 18 16
10 15 3 11 14 18 11 15 8 15 23 26 17 41 42 58 63 71 74 79 83 88 90 89 86 82 77 74 76 75 76 72 64 56 49 43 38 32 28 24 22 20 19 16
12 18 4 8 19 13 15 12 20 22 36 23 39 52 50 52 68 71 81 84 89 92 90 88 84 80 75 67 69 66 62 58 52 49 47 41 36 31 28 26 24 23 21 18
11 17 4 4 16 15 13 6 27 37 2 45 73 83 47 56 60 72 81 87 92 93 87 78 73 71 69 66 64 61 58 54 49 46 44 40 36 33 30 29 25 23 20 18
13 10 12 10 40 51 8 6 35 32 17 37 49 27 8 66 75 80 87 93 94 86 77 75 69 68 69 66 62 59 54 51 47 43 41 39 37 33 31 28 27 20 18 15
17 7 4 21 51 52 5 11 51 36 13 38 24 21 48 83 84 86 92 84 79 74 74 70 67 67 68 63 59 54 51 47 45 44 43 38 35 30 27 24 22 19 16 16
10 9 8 59 33 15 21 37 29 25 40 70 74 59 66 86 91 87 87 75 71 76 71 64 61 64 65 61 55 52 52 47 42 39 36 32 30 27 24 21 18 17 16 15
8 8 21 47 36 55 26 5 15 25 38 74 77 62 69 81 82 80 77 73 69 71 67 58 55 55 63 56 53 52 49 45 41 38 36 31 29 24 21 16 15 14 15 15
17 7 28 36 57 57 20 22 36 42 49 62 88 75 69 82 77 77 72 69 66 64 61 59 54 56 58 54 51 50 48 43 39 37 36 31 26 21 20 19 17 18 17 15
7 12 36 21 57 42 29 38 49 57 58 61 98 79 81 79 72 73 70 63 58 57 57 56 53 55 52 49 48 48 44 40 38 36 34 31 27 26 21 19 24 18 17 16
7 22 15 27 51 25 32 31 37 65 66 63 86 84 83 82 75 72 66 56 56 52 54 51 50 50 47 43 42 44 42 37 35 34 30 28 27 28 26 29 27 27 24 20
11 32 25 23 33 24 33 43 55 76 73 73 76 74 70 75 71 70 59 57 53 50 53 47 46 48 44 41 39 39 39 38 36 32 29 28 26 25 31 30 24 23 23 22
17 13 9 27 20 30 39 47 61 66 66 63 62 64 68 64 64 61 58 56 54 53 47 42 42 43 40 38 40 41 39 43 34 31 29 27 26 24 22 19 16 18 19 21
16 15 14 13 27 35 43 47 60 61 58 56 50 53 54 55 52 54 51 53 50 45 39 35 40 41 38 38 41 41 36 35 34 31 29 30 28 26 22 20 16 13 13 20
11 12 19 25 28 32 42 52 61 56 54 57 59 59 58 59 58 55 51 51 56 49 41 43 43 43 42 39 38 37 36 42 36 33 31 28 26 24 21 17 16 13 10 9
7 15 15 21 25 30 37 45 51 55 61 63 62 60 60 59 61 56 46 44 44 44 39 38 39 39 36 34 35 36 36 32 34 28 27 24 23 20 17 16 14 11 8 8
8 14 15 20 26 32 37 44 51 56 59 59 56 52 53 54 52 42 39 42 43 41 37 35 34 35 35 33 31 32 30 28 28 27 25 23 21 18 16 15 13 9 6 11
14 20 20 19 23 31 40 46 51 54 54 53 50 47 46 39 37 36 35 35 38 37 31 34 41 35 33 36 29 27 28 29 27 26 24 25 21 17 15 13 12 9 6 5
22 23 21 24 25 29 39 43 50 53 53 47 48 44 38 33 32 33 34 32 29 33 33 36 29 30 32 40 33 26 26 26 25 23 21 19 17 15 13 17 12 7 5 4
25 25 26 29 34 38 41 46 50 53 51 47 38 40 41 31 27 29 31 32 33 36 35 32 26 26 24 34 26 22 22 23 21 21 18 16 16 13 12 9 7 5 3 3
26 24 25 30 33 35 39 42 42 42 35 33 36 35 34 29 29 27 25 39 43 39 28 24 23 27 30 31 23 22 20 19 18 17 15 14 12 11 10 8 6 3 2 1
23 25 25 24 26 30 31 30 31 31 31 31 32 33 26 25 26 29 34 33 42 36 25 23 26 26 27 20 18 20 19 16 14 13 13 13 11 10 9 6 4 3 1 2
27 25 25 28 29 30 31 29 27 27 28 30 29 27 24 23 25 24 30 42 38 35 23 28 25 25 24 15 17 16 15 16 14 13 13 16 10 7 7 6 4 4 4 5
24 23 25 27 29 29 30 30 29 29 30 27 26 23 20 20 24 30 36 34 35 27 22 26 25 26 18 15 14 15 15 14 16 17 15 12 10 9 8 7 7 6 7 8
28 24 22 24 24 29 32 35 32 30 30 28 26 29 26 21 23 26 26 27 34 32 24 28 25 22 16 15 15 17 17 17 16 16 14 16 15 11 8 7 7 8 9 11
24 25 25 24 23 27 29 33 32 32 32 30 29 28 26 22 22 26 29 32 29 29 24 21 20 22 18 18 18 18 18 16 16 15 16 14 11 9 11 11 11 13 14 16
Wind_Direction_850mb
253 273 268 242 263 194 239 242 251 287 255 277 280 272 185 166 127 129 139 135 132 135 142 148 150 154 157 158 158 159 157 150 149 149 148 147 145 145 146 146 151 155 164 164
292 285 208 224 198 210 236 261 261 261 270 275 267 257 166 125 132 138 133 126 129 137 144 150 152 152 155 153 152 155 148 144 144 146 143 143 141 141 145 148 152 149 143 141
295 331 301 122 10 308 327 298 281 266 267 273 278 133 125 129 139 134 131 131 132 135 140 145 147 148 147 147 149 152 147 143 141 139 131 130 131 132 133 133 127 118 114 113
288 305 316 105 42 344 317 289 307 285 251 253 98 89 104 128 134 126 127 126 127 128 129 133 135 136 132 132 134 133 131 131 128 128 126 123 125 127 122 116 113 110 105 98
319 331 331 25 22 341 330 298 351 355 315 94 97 87 60 101 112 120 123 125 126 125 125 126 129 129 130 129 128 128 128 128 129 128 125 122 120 118 115 111 102 96 95 93
330 322 352 15 329 328 185 356 347 326 136 116 117 100 86 110 116 117 120 123 122 123 125 124 127 128 127 127 127 126 127 127 124 125 125 123 119 114 107 100 96 88 82 77
341 333 97 3 329 318 343 332 317 349 335 107 96 93 119 119 117 118 119 119 120 121 121 123 127 128 124 125 123 123 124 124 125 128 125 123 117 112 107 106 91 77 70 64
328 335 350 355 346 4 306 299 322 32 94 101 103 105 110 114 116 115 115 118 120 120 120 123 126 126 123 120 121 122 122 122 122 122 121 122 123 116 109 97 83 73 77 74
334 336 337 325 313 315 344 81 41 77 97 112 108 103 111 112 112 113 115 117 119 118 118 119 122 124 120 119 123 122 120 121 118 117 119 121 118 113 102 88 76 76 84 82
321 60 334 324 355 2 74 79 93 98 102 106 105 106 103 108 110 112 116 115 117 117 117 116 119 122 120 121 122 123 122 122 121 120 121 116 106 99 90 79 83 81 81 81
262 344 330 340 1 7 83 98 97 100 99 103 112 103 105 103 105 111 113 113 116 116 117 117 119 119 121 123 125 123 122 122 121 119 118 118 115 100 89 103 112 94 86 95
349 325 311 303 352 34 88 97 104 114 105 98 113 113 113 106 106 109 112 115 114 114 113 115 115 116 120 124 127 126 123 123 126 123 118 115 112 115 101 98 99 96 101 90
282 315 324 338 20 81 104 117 107 110 113 110 108 110 110 114 115 113 109 113 110 112 114 111 113 117 119 122 125 125 127 126 127 123 123 121 115 112 112 105 94 85 74 67
332 314 353 37 46 98 117 118 113 110 107 110 116 118 117 113 112 113 113 114 115 112 108 111 114 111 116 121 122 123 126 124 121 121 120 123 125 122 114 108 96 77 67 53
35 49 70 83 92 104 123 127 117 117 123 124 124 117 114 116 118 116 115 116 113 113 107 111 110 109 113 116 118 116 119 121 122 120 124 124 123 125 122 113 107 92 55 26
60 69 84 97 102 109 125 126 124 121 124 123 120 121 121 122 119 117 118 121 120 116 117 112 110 112 113 114 118 124 132 130 123 120 118 121 121 117 116 114 107 99 84 55
72 79 89 97 112 123 122 129 134 133 130 129 127 127 128 125 123 117 112 113 116 116 116 114 112 112 115 116 116 118 121 125 129 123 121 119 116 119 119 115 106 99 79 58
104 109 114 125 129 134 139 143 145 142 137 133 130 131 126 126 116 116 118 118 113 108 108 110 111 114 116 118 120 122 126 126 129 127 123 123 122 119 115 111 110 106 84 53
125 125 117 123 139 143 145 147 146 143 140 139 138 137 135 121 117 117 118 117 118 116 114 123 123 117 124 128 121 128 130 127 125 127 131 117 112 114 114 116 114 112 107 85
119 123 123 123 134 146 145 146 145 144 135 136 140 138 129 123 123 125 128 126 127 124 128 121 119 124 134 133 125 131 130 127 124 120 126 122 118 125 131 136 126 130 122 91
106 114 121 128 135 138 142 145 144 142 141 142 150 148 145 135 136 139 136 131 134 132 134 125 133 136 144 128 121 137 130 123 126 121 116 128 120 124 129 136 138 133 125 78
120 114 116 125 127 132 138 141 144 142 142 153 158 163 158 140 139 141 152 155 151 142 134 141 147 149 143 122 142 134 133 132 126 125 135 135 140 144 151 148 143 127 96 52
134 137 139 140 143 143 144 150 152 154 154 159 166 159 152 152 156 144 148 157 160 152 154 163 157 153 147 130 133 131 132 132 140 149 150 155 159 165 167 168 171 158 176 314
139 142 142 146 152 151 152 155 159 163 159 156 157 163 167 163 162 164 176 163 169 157 166 167 161 156 134 147 141 135 147 158 162 167 174 166 162 178 186 189 195 225 259 314
161 158 157 161 162 165 166 164 161 163 162 163 170 171 165 172 181 172 168 174 172 166 172 171 167 160 140 149 147 152 167 177 183 171 165 167 163 174 194 197 211 231 259 276
170 171 170 168 170 169 171 170 170 170 169 174 174 176 177 174 172 164 163 170 171 166 176 179 171 154 155 157 166 175 175 181 168 164 165 161 169 185 198 212 238 275 276 276
168 169 166 167 173 174 177 177 177 180 176 182 184 182 181 170 167 169 175 173 180 175 177 180 183 171 187 189 184 189 187 189 187 192 188 195 203 207 222 241 252 261 270 277